Regional Weather Roundup
Issued by NWS

Home | Current Version | Previous Version | Text Only | Print | Product List | Glossary On
Versions: 1 2 3 4 5 6 7 8 9 10 11 12 13 14 15 16 17 18 19 20 21 22 23 24 25 26 27 28 29 30 31 32 33 34 35 36 37 38 39 40 41 42 43 44 45 46 47 48 49 50
236
ASHW40 PHFO 300543
RWRHI

WEATHER ROUNDUP FOR HAWAII
NATIONAL WEATHER SERVICE HONOLULU HI
700 PM HST FRI JUL 29 2016

THIS IS AN AUTOMATED REPORT THAT HAS NOT BEEN QUALITY CONTROLLED.

NOTE..."FAIR" INDICATES FEW OR NO CLOUDS BELOW 12,000 FEET WITH NO
SIGNIFICANT WEATHER AND/OR OBSTRUCTIONS TO VISIBILITY.

* - THESE SITES REPORT LIMITED FIELDS

HIZ001>004-300600-
KAUAI-NIIHAU-

CITY           SKY/WX    TMP DP  RH WIND       PRES   REMARKS
LIHUE APT      CLEAR     77  68  73 N15       30.02R
PORT ALLEN*      N/A     81 N/A N/A E21G31      N/A
POIPU*           N/A     77 N/A N/A NE9G18      N/A
PRINCEVILLE*     N/A     75 N/A N/A SE3         N/A
KOKOLE POINT*  NOT AVBL
MOLOAA DAIRY*    N/A     75  70  83 CALM        N/A
WAIMEA HTS*      N/A     77  68  73 W7          N/A
PUU OPAE*        N/A     70  66  88 CALM        N/A
PUU LUA*       NOT AVBL
MAKAHA RIDGE*    N/A     73  63  68 NW2G9       N/A
$$

HIZ005>011-300600-
OAHU-

CITY           SKY/WX    TMP DP  RH WIND       PRES   REMARKS
HONOLULU       LGT RAIN  80  66  62 NE10      29.97S
KALAELOA       CLEAR     80  65  59 NE7       29.99R
KANEOHE MCB    CLOUDY    76  69  79 NE12G24   29.97R HAZE
WHEELER FIELD  FAIR      73  68  83 VRB5      30.01S
BELLOWS*         N/A    N/A N/A N/A NE15G23     N/A
KAHUKU*          N/A    N/A N/A N/A VRB1        N/A
WHEELER*         N/A    N/A N/A N/A NE9G15      N/A
WAIANAE HARBOR   N/A    N/A N/A N/A NE6G16      N/A
DILLINGHAM*      N/A     77  66  69 MISG        N/A
KAHUKU TRN*      N/A     82  75  78 W10G22      N/A
KAWAILOA*        N/A     72  64  78 NE12G22     N/A
KII*             N/A     79  70  73 NE17G25     N/A
MAKUA RANGE*     N/A     79  66  65 W9G21       N/A
OAHU FOREST NW NOT AVBL
SCHOFIELD BRK*   N/A     81  72  74 MISG        N/A
SCHOFIELD S*   NOT AVBL
WAIANAE VLY*   NOT AVBL
KUAOKALA*      NOT AVBL
HONOULIUULI*   NOT AVBL
MOKUOLOE IS*   NOT AVBL
PALEHUA*         N/A     66  66 100 NE9G18      N/A
WAIAWA PHB*    NOT AVBL
$$

HIZ012>013-300600-
MOLOKAI-

CITY           SKY/WX    TMP DP  RH WIND       PRES   REMARKS
MOLOKAI AIRPT  CLEAR     78  68  71 NE14G24   29.99R
KALAUPAPA      NOT AVBL
MAKAPULAPAI*     N/A     75  70  83 E14G21      N/A
MOLOKAI 1*     NOT AVBL
PUU ALII*        N/A     60  60 100 N3G12       N/A
$$

HIZ016-300600-
KAHOOLAWE-

CITY           SKY/WX    TMP DP  RH WIND       PRES   REMARKS
KAHOOLAWE*       N/A     70 N/A N/A SE1         N/A
HAKIOAWA*        N/A     72  68  87 MISG        N/A
HONOKANAIA*      N/A     81  68  63 NE12G29   29.89R
KANELOA*         N/A     75  66  73 E14G26    30.02R
KEALIALALO*    NOT AVBL
LUA MAKIKA*    NOT AVBL
$$

HIZ014>015-300600-
LANAI-

CITY           SKY/WX    TMP DP  RH WIND       PRES   REMARKS
LANAI CITY     FAIR      73  65  75 NE21G31   30.02R
LANAI 1*       NOT AVBL
$$

HIZ017>028-300600-
MAUI-

CITY           SKY/WX    TMP DP  RH WIND       PRES   REMARKS
KAHULUI        MOCLDY    78  66  66 NE12      29.98R
KAPALUA-W MAUI NOT AVBL
HANA AIRPORT   LGT RAIN  73  72  94 NE7       30.03R
HANA*            N/A     73 N/A N/A S2          N/A
HALEAKALA SUMM   N/A     45  19  36 E15         N/A
MAALAEA BAY*     N/A     79 N/A N/A N20G30      N/A
HALEAKALA*     NOT AVBL
KAUPO GAP*       N/A     72  61  68 E5G18       N/A
KULA 1*          N/A     56  56 100 N1G7        N/A
$$

HIZ023>026-300600-
BIG ISLAND OF HAWAII COAST AND LOWER SLOPES-

CITY           SKY/WX    TMP DP  RH WIND       PRES   REMARKS
KAILUA KONA    MOCLDY    83  71  67 SW10      29.93R
HILO           PTCLDY    79  70  74 NW9       29.97R
HONOKAA*         N/A     72 N/A N/A VRB1        N/A
KAWAIHAE MWT*    N/A     82 N/A N/A W8          N/A
KAWAIHAE*        N/A     82 N/A N/A W7        29.94R
SOUTH POINT*     N/A     75 N/A N/A N16G25      N/A
UPOLU AIRPORT*   N/A    N/A N/A N/A E14G23      N/A
KAMUELA*       CLEAR     64  63  94 NE18      30.08R
HAKALAU*         N/A     55  54  95 NE3         N/A
KALOKO-HONOKO*   N/A     81  70  69 SW5G12    29.93R
PALI 2*          N/A     68  61  77 SW18G31     N/A
KEALAKOMO*       N/A     81  66  61 NE21G28     N/A
KAUPULEHU*       N/A     75  63  64 E13G20      N/A
KAPAPALA*        N/A     73  67  80 W1          N/A
LOWER KAHUKU*    N/A     64  63  94 NE1G9       N/A
PUHE CS*         N/A     82  70  65 W5G12       N/A
PUHO CS*       NOT AVBL
PTA KEAMUKU*     N/A     64  59  82 CALM        N/A
WAIKOLOA*        N/A     75  63  64 NE13G26     N/A
$$

HIZ027>028-300600-
BIG ISLAND OF HAWAII INTERIOR AND SUMMMITS-

CITY           SKY/WX    TMP DP  RH WIND       PRES   REMARKS
BRADSHAW FIELD CLOUDY    59  54  84 S7        30.28R
MK VISITOR CEN   N/A     48  45  87 S2          N/A
MAUNA KEA*       N/A     41 -18   7 CALM        N/A
MAUNA LOA*       N/A    N/A N/A N/A MISG        N/A
MAUNA LOA 1*   NOT AVBL
PTA KIPUKA*      N/A     73  70  88 NW5G13      N/A
PTA RANGE 17*    N/A     73  68  83 W7G15       N/A
PTA WEST*        N/A     64  59  82 W6G14       N/A
NENE CABIN*      N/A     55  54  94 E3          N/A
AHUMOA*          N/A     56  55  98 S7          N/A
PTA PORTABLE*  NOT AVBL
PUU MALI*        N/A     55  52  88 E14G23      N/A
$$

HIC003-300600-
NORTHWEST ISLANDS-

CITY           SKY/WX    TMP DP  RH WIND       PRES   REMARKS
MIDWAY ISLAND  SUNNY     79  73  83 E9        30.10S
MIDWAY NOS*      N/A     79 N/A N/A MISG      30.10R
FRENCH FRIGATE NOT AVBL
$$

PHZ110>124-180-300600-
BUOY REPORTS

STATION/POSITION TIME  TEMP    WIND        PRES    WAVE   SWELL
                       AIR SEA DIR/SP/G            HT/PER HT/DIR
                 (UTC) (F)     (DEG/KT/KT) (MB)    (FT/S) (FT/D)
BUOY 51001       0500   82 83   90/ 16/ 19 1016.0R
BUOY 51101       0450   79 79   50/ 17/ 21 1018.4R   7/ 9   3/ 90
BUOY 51100       NOT AVBL
BUOY 51002       0450   82 82   80/ 17/ 21 1012.8R   8/ 9   5
BUOY 51003       0450   80 82   50/ 14/ 16 1014.2R   7/ 8   5/ 80
BUOY 51004       0450   80 81   60/ 14/ 16 1013.1R   6/ 9   5/ 70
BARBERS PT BUOY  NOT AVBL
WAIMEA BAY BUOY  0504      80                N/A     4/ 8
KAILUA BAY BUOY  0511      80                N/A     7/ 8   2/ 70
LANAI BUOY       0515      81                N/A     3/13   2/190
BARBERS PT 2     NOT AVBL
PAUWELA MAUI     0509      80                N/A     7/ 9   2/ 60
HILO             0512      80                N/A     7/ 8   2/ 70
KANEOHE BAY BUOY 0506      79                N/A     7/ 8   2/ 70
HANALEI KAUAI    NOT AVBL
KAHULUI HARBOR   0500   78 81   30/  9/ 12 1015.3R
HONOLULU HARBOR  0500   77 80   50/  7/ 10 1016.0R
KILO NALU        NOT AVBL
HILO HARBOR      0500   77 80  320/  8/ 10 1014.7R
MOKUOLOE         0400   79 83   50/ 12/ 15 1015.2R
NAWILIWILI       0500      81                N/A
WHOTS BUOY       NOT AVBL
BUOY 51028       NOT AVBL
$$

......................KEY........................................
  SKY/WX - SKY CONDITIONS/PRESENT WEATHER
  TMP    - TEMPERATURE IN FAHRENHEIT
  DWPT   - DEWPOINT IN FAHRENHEIT
  RH     - RELATIVE HUMIDITY IN PERCENT
  WIND   - DIRECTION AND SPEED /MPH FOR ISLANDS...KTS FOR BUOYS/
  PRES   - MEAN SEA LEVEL PRESSURE IN INCHES OF HG
  VSB    - VISIBILITY IN MILES
  HX     - HEAT INDEX
  WCI    - WIND CHILL INDEX
  VRB    - VARIABLE WIND DIRECTION
  N/A    - NOT AVAILABLE




USA.gov is the U.S. government's official web portal to all federal, state and local government web resources and services.